Location: Unspecified
(48.7971°N, 123.6320°W)
Time: 11:28:14
(UTC-07:00)

Resurs 1-4 Rocket - Visible Passes

Search period start: 24 June 2019 00:00
Search period end: 04 July 2019 00:00
Orbit: 800 x 813 km, 98.6° (Epoch: 23 June)

Date Brightness Start Highest point End Pass type
(mag) Time Alt. Az. Time Alt. Az. Time Alt. Az.
24 Jun 4.6 01:23:02 10° ENE 01:23:58 10° E 01:24:54 10° E visible
24 Jun 2.3 02:59:26 10° NNE 03:04:46 70° ESE 03:08:53 17° S visible
25 Jun 2.9 02:35:00 10° NNE 02:40:06 44° E 02:43:58 17° SSE visible
25 Jun 3.2 04:15:07 10° N 04:19:47 32° WNW 04:24:26 10° SW visible
26 Jun 3.6 02:10:45 10° NE 02:15:19 28° E 02:19:04 14° SSE visible
26 Jun 2.6 03:50:15 10° N 03:55:22 48° WNW 04:00:08 12° SW visible
27 Jun 4.1 01:46:53 10° NE 01:50:27 18° E 01:54:00 10° SE visible
27 Jun 2.2 03:25:31 10° NNE 03:30:51 74° WNW 03:35:14 15° SSW visible
28 Jun 4.5 01:24:10 10° ENE 01:25:28 11° E 01:26:47 10° E visible
28 Jun 2.3 03:00:55 10° NNE 03:06:16 72° ESE 03:10:19 18° S visible
29 Jun 2.9 02:36:27 10° NNE 02:41:35 45° E 02:45:24 17° SSE visible
29 Jun 3.3 04:16:37 10° N 04:21:15 31° WNW 04:25:51 10° WSW visible
30 Jun 3.5 02:12:12 10° NE 02:16:49 29° E 02:20:29 14° SSE visible
30 Jun 2.7 03:51:44 10° N 03:56:49 47° WNW 04:01:33 12° SW visible
01 Jul 4.1 01:48:17 10° NE 01:51:57 18° E 01:55:33 10° SE visible
01 Jul 2.2 03:27:00 10° N 03:32:20 72° WNW 03:36:38 16° SSW visible
02 Jul 4.5 01:25:24 10° ENE 01:26:59 11° E 01:28:33 10° ESE visible
02 Jul 2.2 03:02:23 10° NNE 03:07:45 74° ESE 03:11:43 18° S visible
03 Jul 2.8 02:37:55 10° NNE 02:43:04 47° E 02:46:48 18° SSE visible
03 Jul 3.3 04:18:07 10° N 04:22:42 30° WNW 04:27:16 10° WSW visible
